Location: Newark
(21.1200°N, 73.4000°E)
Time: 19:33:45
(UTC+00:00)

Vanguard 1 Rocket - Pass Details

Date: 29 January 2020
Orbit: 650 x 4226 km, 34.3° (Epoch: 22 February)

Event Time Altitude Azimuth Distance (km) Brightness Sun altitude
Rises 00:33:07 0° 208° (SSW) 2,970 9.9 -16.8°
Reaches altitude 10° 00:35:47 10° 191° (S) 2,038 9.2 -16.2°
Maximum altitude 00:39:12 22° 139° (SE) 1,508 9.2 -15.5°
Drops below altitude 10° 00:43:12 10° 89° (E) 2,436 10.9 -14.6°
Sets 00:46:45 0° 74° (ENE) 3,752 11.7 -13.8°
